Weather Roundup
Issued by NWS Chicago, IL

Home | Current Version | Previous Version | Graphics & Text | Print | Product List | Glossary On
Versions: 1 2 3 4 5 6 7 8 9 10 11 12 13 14 15 16 17 18 19 20 21 22 23 24 25 26 27 28 29 30 31 32 33 34 35 36 37 38 39 40 41 42 43 44 45 46 47 48 49 50
000
NZUS59 KLOT 281703
HRRLOT

CHICAGO AREA WEATHER ROUNDUP
NATIONAL WEATHER SERVICE CHICAGO/ROMEOVILLE IL
1200 PM CDT SAT MAY 28 2016

NOTE: "FAIR" INDICATES FEW OR NO CLOUDS BELOW 12,000 FEET WITH NO
SIGNIFICANT WEATHER AND/OR OBSTRUCTIONS TO VISIBILITY.

* THESE STATIONS ARE NOT UNDER NWS QUALITY CONTROL. THEY ALSO MAY NOT
  REPORT WEATHER SUCH AS PRECIPITATION OR FOG.

ILZ005-006-012>014-019>023-281800-
NORTHEAST ILLINOIS

CITY           SKY/WX    TMP DP  RH WIND       PRES   REMARKS
OHARE          CLOUDY    74  64  71 S15G29    29.92R
MIDWAY         CLOUDY    76  64  66 S14G23    29.93R
AURORA         CLOUDY    76  65  68 S18       29.93R
LANSING*       CLOUDY    75  65  69 S17G23    29.96R
WAUKEGAN       LGT RAIN  76  64  66 S16G26    29.90R
DUPAGE AIRPORT CLOUDY    75  64  68 S16G25    29.92R
WHEELING       PTSUNNY   75  63  66 S21G28    29.92R
$$

WIZ051-052-058>065-066-070>072-281800-
SOUTHEAST WISCONSIN

CITY           SKY/WX    TMP DP  RH WIND       PRES   REMARKS
MILWAUKEE      CLOUDY    77  66  68 S21G28    29.88S
KENOSHA*       CLOUDY    76  64  66 S17G28    29.90R
RACINE*        CLOUDY    76  64  66 SE10G21   29.91R
WAUKESHA       PTSUNNY   73  64  73 S16       29.89R
$$

INZ001>003-010>013-019-020-281800-
NORTHWEST INDIANA

CITY           SKY/WX    TMP DP  RH WIND       PRES   REMARKS
GARY*          CLOUDY    79  72  78 S14G31    29.95S HX  82
MICHIGAN CITY* NOT AVBL
RENSSELAER*    NOT AVBL
VALPARAISO     CLOUDY    78  65  63 S17G25    29.99R HX  80
$$

LMZ740>746-281800-
SOUTHERN LAKE MICHIGAN

STATION/POSITION TIME  SKY/WX   TEMP WIND        PRES    VSBY
                                AIR  DIR/SP/G
                 (UTC)          (F)  (DEG/KT/KT) (MB)    (MI)
HARRISON CRIB    1600            73  190/ 26/ 27   N/A
BURNHAM HARBOR   1700            75  190/ 14/ 21   N/A
CALUMET HARBOR   1600            74  200/ 18/ 24 1013.2R
BURNS HARBOR     1600            75  190/ 15     1014.6R
MICHIGAN CITY    1600            75  170/ 15/ 21   N/A
$$

ABBREVIATIONS USED IN REMARKS
   TC - TEMPERATURE IN CELSIUS
  WCI - WIND CHILL INDEX
   HX - HEAT INDEX
  VSB - VISIBILITY
$$




USA.gov is the U.S. government's official web portal to all federal, state and local government web resources and services.